TimeEDT,TemperatureF,Dew PointF,Humidity,Sea Level PressureIn,VisibilityMPH,Wind Direction,Wind SpeedMPH,Gust SpeedMPH,PrecipitationIn,Events,Conditions,WindDirDegrees,DateUTC
12:53 AM,80.1,73.0,79,30.00,10.0,East,9.2,-,N/A,,Partly Cloudy,80,2013-05-21 04:53:00
1:53 AM,80.1,73.0,79,29.97,10.0,East,9.2,-,N/A,,Partly Cloudy,100,2013-05-21 05:53:00
2:53 AM,79.0,72.0,79,29.95,10.0,SE,17.3,-,N/A,,Mostly Cloudy,140,2013-05-21 06:53:00
3:00 AM,78.8,71.6,78,29.94,10.0,SSE,16.1,-,N/A,,Mostly Cloudy,150,2013-05-21 07:00:00
3:24 AM,78.8,71.6,78,29.94,10.0,SE,13.8,-,N/A,,Overcast,140,2013-05-21 07:24:00
3:53 AM,79.0,73.0,82,29.94,10.0,SE,9.2,-,0.00,Rain,Light Rain,140,2013-05-21 07:53:00
4:27 AM,80.6,73.4,79,29.94,10.0,SE,11.5,-,0.00,,Mostly Cloudy,130,2013-05-21 08:27:00
4:53 AM,75.9,70.0,82,29.94,4.0,South,13.8,23.0,0.06,Rain,Heavy Rain,180,2013-05-21 08:53:00
5:09 AM,77.0,71.6,83,29.94,10.0,SSE,6.9,-,0.02,Rain,Light Rain,150,2013-05-21 09:09:00
5:53 AM,79.0,73.9,84,29.94,10.0,ESE,12.7,-,0.02,,Overcast,110,2013-05-21 09:53:00
6:53 AM,79.0,73.9,84,29.95,10.0,East,10.4,-,N/A,,Partly Cloudy,90,2013-05-21 10:53:00
7:53 AM,81.0,73.9,79,29.96,10.0,East,10.4,-,N/A,,Clear,100,2013-05-21 11:53:00
8:53 AM,82.0,73.0,74,29.98,10.0,East,8.1,-,N/A,,Clear,100,2013-05-21 12:53:00
9:53 AM,84.0,73.9,72,29.99,10.0,East,8.1,-,N/A,,Clear,100,2013-05-21 13:53:00
10:53 AM,84.0,73.9,72,30.00,10.0,East,10.4,-,N/A,,Clear,100,2013-05-21 14:53:00
11:53 AM,86.0,75.0,70,29.99,10.0,ESE,12.7,-,N/A,,Partly Cloudy,110,2013-05-21 15:53:00
12:53 PM,84.9,73.9,69,29.99,10.0,ESE,8.1,-,N/A,,Clear,120,2013-05-21 16:53:00
1:53 PM,86.0,73.0,65,29.97,10.0,SE,9.2,-,N/A,,Partly Cloudy,140,2013-05-21 17:53:00
2:53 PM,86.0,73.0,65,29.94,10.0,SE,8.1,-,N/A,,Partly Cloudy,130,2013-05-21 18:53:00
3:53 PM,86.0,73.0,65,29.92,10.0,SE,6.9,-,N/A,,Clear,140,2013-05-21 19:53:00
4:53 PM,84.9,73.9,69,29.91,10.0,ESE,8.1,-,N/A,,Clear,110,2013-05-21 20:53:00
5:53 PM,84.0,73.0,69,29.91,10.0,ESE,6.9,-,N/A,,Clear,110,2013-05-21 21:53:00
6:53 PM,82.9,73.0,72,29.93,10.0,ESE,9.2,-,N/A,,Clear,110,2013-05-21 22:53:00
7:53 PM,82.0,73.0,74,29.94,10.0,East,9.2,-,N/A,,Clear,100,2013-05-21 23:53:00
8:53 PM,82.0,73.0,74,29.94,10.0,ESE,9.2,-,N/A,,Partly Cloudy,110,2013-05-22 00:53:00
9:51 PM,80.6,73.4,79,29.95,10.0,ESE,10.4,-,N/A,,Mostly Cloudy,120,2013-05-22 01:51:00
9:53 PM,81.0,73.9,79,29.95,10.0,ESE,12.7,-,N/A,,Mostly Cloudy,110,2013-05-22 01:53:00
10:53 PM,81.0,73.9,79,29.96,10.0,East,11.5,-,N/A,,Partly Cloudy,100,2013-05-22 02:53:00
11:53 PM,81.0,73.9,79,29.95,10.0,ESE,10.4,-,N/A,,Partly Cloudy,110,2013-05-22 03:53:00